Regional Weather Roundup
Issued by NWS

Home | Current Version | Previous Version | Text Only | Print | Product List | Glossary On
Versions: 1 2 3 4 5 6 7 8 9 10 11 12 13 14 15 16 17 18 19 20 21 22 23 24 25 26 27 28 29 30 31 32 33 34 35 36 37 38 39 40 41 42 43 44 45 46 47 48 49 50
000
ASUS44 KFWD 250801
RWRTX
NORTH TEXAS HOURLY WEATHER ROUNDUP
NATIONAL WEATHER SERVICE FORT WORTH TX
300 AM CDT WED APR 25 2018

NOTE: "FAIR" INDICATES FEW OR NO CLOUDS BELOW 12,000 FEET WITH NO
SIGNIFICANT WEATHER AND/OR OBSTRUCTIONS TO VISIBILITY.

TXZ118-119-250900-
DALLAS/FORT WORTH METROPLEX

CITY           SKY/WX    TMP DP  RH WIND       PRES   REMARKS
DFW AIRPORT    CLOUDY    68  53  58 N10G17    30.03R
DALLAS LOVE    CLOUDY    69  54  58 N8        30.02R
FTW MEACHAM    FAIR      66  57  72 NE5       30.03F
DAL-EXECUTIVE  FAIR      65  57  75 S3        30.02F
FTW-ALLIANCE   CLOUDY    66  55  67 N13       30.05F
FTW-NAS-JRB    FAIR      68  53  58 CALM      30.04F
FTW-SPINKS     FAIR      66  54  64 S3        30.06F
ARLINGTON      FAIR      67  53  61 S5        30.04F
GRAND PRAIRIE  FAIR      68  50  51 CALM      30.04F
ADDISON        FAIR      68  46  45 N8        30.08R
MESQUITE       MOCLDY    66  50  56 S8        30.00F
LANCASTER      FAIR      62  56  82 S7        30.03F
$$

TXZ091>094-102>105-117-120-121-131>134-250900-
NORTH CENTRAL TEXAS

CITY           SKY/WX    TMP DP  RH WIND       PRES   REMARKS
SHRMAN/DENISON FAIR      63  49  61 CALM      30.07F
GAINESVILLE    FAIR      60  52  74 NW5       30.10R
BOWIE          CLOUDY    63  56  79 N7        30.08S
BRIDGEPORT     FAIR      60  55  82 CALM      30.08F
DECATUR        FAIR      61  56  85 CALM      30.06F
DENTON         FAIR      64  55  72 NW5       30.06F
MCKINNEY       FAIR      62  57  83 E5        30.03F
BONHAM         CLOUDY    57  55  91 NE3       30.06F
ROCKWALL       DRIZZLE   68  50  52 MISG      30.00F
TERRELL        LGT RAIN  64  55  72 E5        30.02F
WAXAHACHIE     FAIR      65  54  65 NE3       30.04F
CLEBURNE       MOCLDY    68  52  56 SE7       30.07R
GRANBURY       FAIR      69  57  65 CALM      30.07F
$$

TXZ083>090-098>101-113>116-127>130-139>142-154-155-250900-
WESTERN NORTH TEXAS

CITY           SKY/WX    TMP DP  RH WIND       PRES   REMARKS
WICHITA FALLS  CLOUDY    62  49  62 N18       30.13R
WF-KICKAPOO    CLOUDY    64  49  59 N21G29    30.16R
VERNON         CLOUDY    57  44  60 N23G29    30.21R
ABILENE        MOCLDY    62  58  86 N10       30.11R
GRAHAM           N/A     63  52  68 CALM      30.08R
BRECKENRIDGE   FAIR      66  58  75 N5        30.07F
EASTLAND       FAIR      62  58  87 CALM      30.08R
RANGER         FAIR      63  59  86 NE5       30.08R
MINERAL WELLS  FAIR      66  54  65 CALM      30.05S
STEPHENVILLE   FAIR      65  58  79 SE13      30.05F
COMANCHE       LGT RAIN  65  60  82 W3        30.10R
COLEMAN        FAIR      66  57  72 SE12      30.08S
BRADY          MOCLDY    68  52  56 SE6       30.07R
$$

TXZ143>147-156>162-174-175-250900-
CENTRAL TEXAS

CITY           SKY/WX    TMP DP  RH WIND       PRES   REMARKS
WACO           FAIR      68  55  63 SE9       30.01F
WACO-MCGREGOR  FAIR      65  57  75 S8        30.04F
HILLSBORO      FAIR      69  51  53 E9        30.03F
CORSICANA      MOCLDY    65  56  72 E3        30.06F
MEXIA          FAIR      63  54  72 CALM      30.05F
HEARNE         FAIR      63  61  93 CALM      30.07S
CAMERON        FAIR      64  59  83 CALM      30.06S
TEMPLE         FAIR      66  59  78 SE6       30.06R
KILLEEN        NOT AVBL
KILLEEN-SKYLRK FAIR      65  59  81 CALM      30.07F
FORT HOOD      MOCLDY    65  58  77 CALM      30.03F
GATESVILLE     FAIR      66  57  72 CALM      30.07S
HAMILTON       FAIR      68  56  64 S5        30.08F
LAMPASAS       FAIR      64  57  78 CALM      30.06F
$$

TXZ095>097-106>112-122>126-135>138-148>153-164>167-250900-
EAST TEXAS

CITY           SKY/WX    TMP DP  RH WIND       PRES   REMARKS
PARIS          MOCLDY    60  49  66 N5        30.05F
SULPHUR SPRNGS FAIR      61  52  72 CALM      30.07F
MOUNT PLEASANT FAIR      56  54  94 CALM      30.05F
GILMER         FAIR      55  53  94 CALM      30.04F THUNDER
MINEOLA        MOCLDY    59  54  82 N3        30.07S
TYLER          MOCLDY    59  54  83 SW3       30.06F
LONGVIEW       FAIR      56  55  97 CALM      30.03F
MARSHALL       FAIR      53  51  94 CALM      30.06F
ATHENS         CLOUDY    59  55  88 CALM      30.06S
PALESTINE      FAIR      59  55  87 CALM      30.07S
JACKSONVILLE   FAIR      64  50  61 S3        30.07F
HENDERSON      FAIR      53  52  95 CALM      30.06F
CENTER         FAIR      53  52  95 CALM      30.06F
NACOGDOCHES      N/A     52  51  97 CALM      30.06F
LUFKIN         FAIR      56  54  93 CALM      30.05F
$$

SUPPLEMENTAL OBSERVATIONS (NWS FORT WORTH AREA)

CITY           SKY/WX    TMP DP  RH WIND       PRES   REMARKS
$$

SUPPLEMENTAL OBSERVATIONS (NWS NORMAN AREA)

CITY           SKY/WX    TMP DP  RH WIND       PRES   REMARKS
GOODLETT         N/A     53  39  60 N23G29    30.23S
ODELL            N/A     54  42  64 N20       30.23S
CROWELL          N/A     55  42  63 N25       30.21S
KNOX CITY        N/A     57  45  62 N20G28    30.18R
SEYMOUR          N/A     60  49  68 N18G26    30.15F
$$

SUPPLEMENTAL OBSERVATIONS (NWS SAN ANGELO AREA)

CITY           SKY/WX    TMP DP  RH WIND       PRES   REMARKS
WEINERT          N/A     59  46  63 N21       30.16R
HASKELL          N/A     58  46  63 N24G30    30.14S
THROCKMORTON     N/A     64  56  77 N9G17     30.12R
STAMFORD         N/A     61  53  74 N16       30.14R
CLYDE            N/A     62  56  83 N6        30.12R
$$

SUPPLEMENTAL OBSERVATIONS (NWS SHREVEPORT AREA)

CITY           SKY/WX    TMP DP  RH WIND       PRES   REMARKS
$$

SUPPLEMENTAL OBSERVATIONS ARE A COLLECTION OF AUTOMATED INSTRUMENTS
THAT ARE MAINTAINED BY A VARIETY OF FEDERAL AND STATE AGENCIES.
CERTAIN ELEMENTS...SUCH AS HUMIDITY VALUES AND SUSTAINED WIND
SPEEDS...MAY BE APPROXIMATED.





USA.gov is the U.S. government's official web portal to all federal, state and local government web resources and services.